When you browse on this site, cookies collect data to enhance your experience and personalize the content and advertising you see.
Visit our Privacy Policy to learn more. By continuing to use the site, you agree to this use of cookies and data.
  • In Hungary
  • List of Countries
  • For 7 days
  • Water Temperature
  • Satellite Maps
  • Weather Map
  • News
  • Weather Widgets
  • user-avatar
    Login

    Hourly Weather Khagaria

    Today, 20 March, Wednesday

    Time Temperature Precipitation Wind Pressure Humidity
    00:00 +25°C° 0 mm 1 mps 754 mmHg 25%
    01:00 +24°C° 0 mm 1 mps 753 mmHg 25%
    02:00 +24°C° 0 mm 1 mps 753 mmHg 25%
    03:00 +24°C° 0 mm 1 mps 753 mmHg 26%
    04:00 +23°C° 0 mm 1 mps 753 mmHg 27%
    05:00 +22°C° 0 mm 1 mps 753 mmHg 28%
    06:00 +22°C° 0 mm 1 mps 753 mmHg 30%
    07:00 +24°C° 0 mm 2 mps 754 mmHg 27%
    08:00 +26°C° 0 mm 2 mps 754 mmHg 25%
    09:00 +28°C° 0 mm 3 mps 755 mmHg 23%
    10:00 +30°C° 0 mm 3 mps 754 mmHg 20%
    11:00 +33°C° 0 mm 4 mps 754 mmHg 18%
    12:00 +35°C° 0 mm 4 mps 754 mmHg 17%
    13:00 +36°C° 0 mm 4 mps 754 mmHg 16%
    14:00 +36°C° 0 mm 4 mps 753 mmHg 14%
    15:00 +37°C° 0 mm 5 mps 753 mmHg 12%
    16:00 +36°C° 0 mm 4 mps 752 mmHg 14%
    17:00 +35°C° 0 mm 3 mps 752 mmHg 15%
    18:00 +33°C° 0 mm 3 mps 752 mmHg 17%
    19:00 +31°C° 0 mm 2 mps 752 mmHg 18%
    20:00 +29°C° 0 mm 2 mps 753 mmHg 18%
    21:00 +27°C° 0 mm 2 mps 753 mmHg 19%
    22:00 +27°C° 0 mm 2 mps 753 mmHg 19%
    23:00 +26°C° 0 mm 2 mps 753 mmHg 20%

    Tomorrow, 21 March, Thursday

    Time Temperature Precipitation Wind Pressure Humidity
    00:00 +26°C° 0 mm 1 mps 753 mmHg 20%
    01:00 +25°C° 0 mm 1 mps 753 mmHg 21%
    02:00 +24°C° 0 mm 1 mps 752 mmHg 22%
    03:00 +24°C° 0 mm 1 mps 752 mmHg 23%
    04:00 +24°C° 0 mm 1 mps 752 mmHg 23%
    05:00 +23°C° 0 mm 1 mps 752 mmHg 23%
    06:00 +23°C° 0 mm 1 mps 752 mmHg 23%
    07:00 +25°C° 0 mm 1 mps 753 mmHg 22%
    08:00 +28°C° 0 mm 1 mps 754 mmHg 21%
    09:00 +30°C° 0 mm 1 mps 755 mmHg 20%
    10:00 +32°C° 0 mm 2 mps 755 mmHg 18%
    11:00 +35°C° 0 mm 2 mps 754 mmHg 17%
    12:00 +37°C° 0 mm 3 mps 754 mmHg 16%
    13:00 +38°C° 0 mm 3 mps 754 mmHg 15%
    14:00 +40°C° 0 mm 4 mps 753 mmHg 14%
    15:00 +40°C° 0 mm 4 mps 752 mmHg 13%
    16:00 +38°C° 0 mm 4 mps 752 mmHg 14%
    17:00 +37°C° 0 mm 3 mps 751 mmHg 16%
    18:00 +36°C° 0 mm 3 mps 751 mmHg 17%
    19:00 +34°C° 0 mm 2 mps 752 mmHg 18%
    20:00 +32°C° 0 mm 2 mps 752 mmHg 19%
    21:00 +30°C° 0 mm 1 mps 753 mmHg 20%
    22:00 +30°C° 0 mm 2 mps 753 mmHg 20%
    23:00 +30°C° 0 mm 2 mps 753 mmHg 20%

    Day after tomorrow, 22 March, Friday

    Time Temperature Precipitation Wind Pressure Humidity
    00:00 +30°C° 0 mm 2 mps 753 mmHg 20%
    01:00 +29°C° 0 mm 2 mps 752 mmHg 22%
    02:00 +28°C° 0 mm 2 mps 752 mmHg 24%
    03:00 +27°C° 0 mm 1 mps 752 mmHg 25%
    04:00 +27°C° 0 mm 1 mps 752 mmHg 26%
    05:00 +27°C° 0 mm 1 mps 752 mmHg 27%
    06:00 +26°C° 0 mm 1 mps 752 mmHg 28%
    07:00 +28°C° 0 mm 1 mps 753 mmHg 27%
    08:00 +30°C° 0 mm 1 mps 754 mmHg 26%
    09:00 +32°C° 0 mm 1 mps 754 mmHg 24%
    10:00 +34°C° 0 mm 1 mps 754 mmHg 23%
    11:00 +36°C° 0 mm 1 mps 754 mmHg 21%
    12:00 +39°C° 0 mm 1 mps 753 mmHg 20%
    13:00 +39°C° 0 mm 2 mps 752 mmHg 18%
    14:00 +40°C° 0 mm 3 mps 751 mmHg 17%
    15:00 +42°C° 0 mm 4 mps 750 mmHg 16%
    16:00 +39°C° 0.1 mm 3 mps 750 mmHg 19%
    17:00 +37°C° 0.1 mm 3 mps 750 mmHg 21%
    18:00 +36°C° 0.1 mm 2 mps 750 mmHg 24%
    19:00 +35°C° 0 mm 2 mps 750 mmHg 25%
    20:00 +32°C° 0 mm 2 mps 751 mmHg 26%
    21:00 +31°C° 0 mm 1 mps 752 mmHg 26%
    22:00 +30°C° 0 mm 2 mps 752 mmHg 27%
    23:00 +30°C° 0 mm 2 mps 752 mmHg 27%

    23 March, Saturday

    Time Temperature Precipitation Wind Pressure Humidity
    00:00 +29°C° 0 mm 2 mps 752 mmHg 27%
    01:00 +28°C° 0 mm 2 mps 752 mmHg 28%
    02:00 +27°C° 0 mm 2 mps 751 mmHg 28%
    03:00 +26°C° 0 mm 3 mps 751 mmHg 28%
    04:00 +26°C° 0 mm 3 mps 751 mmHg 29%
    05:00 +25°C° 0 mm 3 mps 751 mmHg 30%
    06:00 +24°C° 0 mm 3 mps 752 mmHg 31%
    07:00 +27°C° 0 mm 3 mps 753 mmHg 29%
    08:00 +29°C° 0 mm 4 mps 753 mmHg 26%
    09:00 +32°C° 0 mm 4 mps 754 mmHg 24%
    10:00 +34°C° 0 mm 4 mps 754 mmHg 21%
    11:00 +36°C° 0 mm 5 mps 754 mmHg 17%
    12:00 +39°C° 0 mm 6 mps 753 mmHg 14%
    13:00 +40°C° 0 mm 6 mps 753 mmHg 12%
    14:00 +40°C° 0 mm 7 mps 752 mmHg 11%
    15:00 +40°C° 0 mm 7 mps 751 mmHg 9%
    16:00 +39°C° 0 mm 6 mps 750 mmHg 10%
    17:00 +36°C° 0 mm 5 mps 750 mmHg 11%
    18:00 +35°C° 0 mm 4 mps 750 mmHg 13%
    19:00 +33°C° 0 mm 4 mps 751 mmHg 13%
    20:00 +32°C° 0 mm 4 mps 751 mmHg 14%
    21:00 +29°C° 0 mm 3 mps 752 mmHg 15%
    22:00 +28°C° 0 mm 4 mps 752 mmHg 15%
    23:00 +28°C° 0 mm 4 mps 752 mmHg 16%

    24 March, Sunday

    Time Temperature Precipitation Wind Pressure Humidity
    00:00 +27°C° 0 mm 4 mps 752 mmHg 16%
    01:00 +26°C° 0 mm 4 mps 751 mmHg 17%
    02:00 +26°C° 0 mm 4 mps 751 mmHg 18%
    03:00 +25°C° 0 mm 4 mps 750 mmHg 19%
    04:00 +23°C° 0 mm 4 mps 751 mmHg 20%
    05:00 +23°C° 0 mm 4 mps 751 mmHg 20%
    06:00 +22°C° 0 mm 4 mps 751 mmHg 21%
    07:00 +25°C° 0 mm 4 mps 752 mmHg 20%
    08:00 +27°C° 0 mm 4 mps 753 mmHg 19%
    09:00 +29°C° 0 mm 5 mps 754 mmHg 17%
    10:00 +32°C° 0 mm 5 mps 753 mmHg 16%
    11:00 +34°C° 0 mm 5 mps 753 mmHg 15%
    12:00 +38°C° 0 mm 6 mps 753 mmHg 14%
    13:00 +38°C° 0 mm 6 mps 752 mmHg 13%
    14:00 +39°C° 0 mm 6 mps 751 mmHg 13%
    15:00 +40°C° 0 mm 6 mps 751 mmHg 12%
    16:00 +39°C° 0 mm 5 mps 750 mmHg 13%
    17:00 +36°C° 0 mm 4 mps 750 mmHg 14%
    18:00 +35°C° 0 mm 3 mps 750 mmHg 15%
    19:00 +34°C° 0 mm 3 mps 751 mmHg 16%
    20:00 +31°C° 0 mm 2 mps 752 mmHg 17%
    21:00 +29°C° 0 mm 2 mps 752 mmHg 18%
    22:00 +28°C° 0 mm 2 mps 752 mmHg 18%
    23:00 +28°C° 0 mm 2 mps 752 mmHg 19%

    25 March, Monday

    Time Temperature Precipitation Wind Pressure Humidity
    00:00 +27°C° 0 mm 2 mps 752 mmHg 20%
    01:00 +26°C° 0 mm 2 mps 752 mmHg 21%
    02:00 +26°C° 0 mm 2 mps 751 mmHg 22%
    03:00 +25°C° 0 mm 2 mps 751 mmHg 23%
    04:00 +25°C° 0 mm 2 mps 751 mmHg 24%
    05:00 +24°C° 0 mm 2 mps 752 mmHg 26%
    06:00 +23°C° 0 mm 2 mps 752 mmHg 28%
    07:00 +25°C° 0 mm 3 mps 753 mmHg 26%
    08:00 +28°C° 0 mm 3 mps 754 mmHg 24%
    09:00 +30°C° 0 mm 3 mps 754 mmHg 22%
    10:00 +33°C° 0 mm 3 mps 754 mmHg 20%
    11:00 +35°C° 0 mm 4 mps 754 mmHg 17%
    12:00 +37°C° 0 mm 4 mps 754 mmHg 14%
    13:00 +39°C° 0 mm 5 mps 753 mmHg 13%
    14:00 +40°C° 0 mm 5 mps 752 mmHg 12%
    15:00 +41°C° 0 mm 6 mps 751 mmHg 10%
    16:00 +40°C° 0 mm 5 mps 751 mmHg 12%
    17:00 +37°C° 0 mm 4 mps 751 mmHg 13%
    18:00 +36°C° 0 mm 3 mps 751 mmHg 14%
    19:00 +35°C° 0 mm 2 mps 752 mmHg 15%
    20:00 +32°C° 0 mm 2 mps 752 mmHg 16%
    21:00 +30°C° 0 mm 1 mps 753 mmHg 18%
    22:00 +30°C° 0 mm 2 mps 753 mmHg 19%
    23:00 +29°C° 0 mm 2 mps 753 mmHg 20%
    Show more